Year,Month,Day,Hour,Minute,Value (Times are PST for temperature in C)
2008,05,31,00,00,8.70
2008,05,31,00,01,8.70
2008,05,31,00,02,8.70
2008,05,31,00,03,8.70
2008,05,31,00,04,8.70
2008,05,31,00,05,8.70
2008,05,31,00,06,8.70
2008,05,31,00,07,8.70
2008,05,31,00,08,8.70
2008,05,31,00,09,8.70
2008,05,31,00,10,8.70
2008,05,31,00,11,8.60
2008,05,31,00,12,8.60
2008,05,31,00,13,8.60
2008,05,31,00,14,8.60
2008,05,31,00,15,8.60
2008,05,31,00,16,8.60
2008,05,31,00,17,8.50
2008,05,31,00,18,8.50
2008,05,31,00,19,8.50
2008,05,31,00,20,8.50
2008,05,31,00,21,8.50
2008,05,31,00,22,8.50
2008,05,31,00,23,8.50
2008,05,31,00,24,8.50
2008,05,31,00,25,8.50
2008,05,31,00,26,8.40
2008,05,31,00,27,8.40
2008,05,31,00,28,8.40
2008,05,31,00,29,8.40
2008,05,31,00,30,8.40
2008,05,31,00,31,8.30
2008,05,31,00,32,8.30
2008,05,31,00,33,8.30
2008,05,31,00,34,8.30
2008,05,31,00,35,8.30
2008,05,31,00,36,8.30
2008,05,31,00,37,8.30
2008,05,31,00,38,8.30
2008,05,31,00,39,8.30
2008,05,31,00,40,8.30
2008,05,31,00,41,8.30
2008,05,31,00,42,8.30
2008,05,31,00,43,8.30
2008,05,31,00,44,8.30
2008,05,31,00,45,8.20
2008,05,31,00,46,8.20
2008,05,31,00,47,8.20
2008,05,31,00,48,8.20
2008,05,31,00,49,8.20
2008,05,31,00,50,8.20
2008,05,31,00,51,8.30
2008,05,31,00,52,8.30
2008,05,31,00,53,8.30
2008,05,31,00,54,8.30
2008,05,31,00,55,8.30
2008,05,31,00,56,8.30
2008,05,31,00,57,8.30
2008,05,31,00,58,8.30
2008,05,31,00,59,8.30
2008,05,31,01,00,8.30
2008,05,31,01,01,8.30
2008,05,31,01,02,8.30
2008,05,31,01,03,8.30
2008,05,31,01,04,8.30
2008,05,31,01,05,8.30
2008,05,31,01,06,8.30
2008,05,31,01,07,8.20
2008,05,31,01,08,8.20
2008,05,31,01,09,8.20
2008,05,31,01,10,8.20
2008,05,31,01,11,8.20
2008,05,31,01,12,8.20
2008,05,31,01,13,8.20
2008,05,31,01,14,8.30
2008,05,31,01,15,8.30
2008,05,31,01,16,8.30
2008,05,31,01,17,8.30
2008,05,31,01,18,8.30
2008,05,31,01,19,8.30
2008,05,31,01,20,8.30
2008,05,31,01,21,8.30
2008,05,31,01,22,8.30
2008,05,31,01,23,8.20
2008,05,31,01,24,8.20
2008,05,31,01,25,8.20
2008,05,31,01,26,8.20
2008,05,31,01,27,8.20
2008,05,31,01,28,8.20
2008,05,31,01,29,8.20
2008,05,31,01,30,8.20
2008,05,31,01,31,8.20
2008,05,31,01,32,8.20
2008,05,31,01,33,8.20
2008,05,31,01,34,8.20
2008,05,31,01,35,8.10
2008,05,31,01,36,8.10
2008,05,31,01,37,8.10
2008,05,31,01,38,8.10
2008,05,31,01,39,8.10
2008,05,31,01,40,8.00
2008,05,31,01,41,8.00
2008,05,31,01,42,8.00
2008,05,31,01,43,8.00
2008,05,31,01,44,7.90
2008,05,31,01,45,7.90
2008,05,31,01,46,7.90
2008,05,31,01,47,7.80
2008,05,31,01,48,7.80
2008,05,31,01,49,7.80
2008,05,31,01,50,7.70
2008,05,31,01,51,7.70
2008,05,31,01,52,7.60
2008,05,31,01,53,7.60
2008,05,31,01,54,7.50
2008,05,31,01,55,7.50
2008,05,31,01,56,7.40
2008,05,31,01,57,7.40
2008,05,31,01,58,7.40
2008,05,31,01,59,7.30
2008,05,31,02,00,7.30
2008,05,31,02,01,7.30
2008,05,31,02,02,7.30
2008,05,31,02,03,7.30
2008,05,31,02,04,7.30
2008,05,31,02,05,7.30
2008,05,31,02,06,7.30
2008,05,31,02,07,7.30
2008,05,31,02,08,7.30
2008,05,31,02,09,7.30
2008,05,31,02,10,7.30
2008,05,31,02,11,7.30
2008,05,31,02,12,7.30
2008,05,31,02,13,7.30
2008,05,31,02,14,7.30
2008,05,31,02,15,7.30
2008,05,31,02,16,7.30
2008,05,31,02,17,7.30
2008,05,31,02,18,7.30
2008,05,31,02,19,7.30
2008,05,31,02,20,7.30
2008,05,31,02,21,7.30
2008,05,31,02,22,7.30
2008,05,31,02,23,7.30
2008,05,31,02,24,7.30
2008,05,31,02,25,7.30
2008,05,31,02,26,7.30
2008,05,31,02,27,7.30
2008,05,31,02,28,7.30
2008,05,31,02,29,7.20
2008,05,31,02,30,7.20
2008,05,31,02,31,7.20
2008,05,31,02,32,7.20
2008,05,31,02,33,7.10
2008,05,31,02,34,7.10
2008,05,31,02,35,7.10
2008,05,31,02,36,7.00
2008,05,31,02,37,7.00
2008,05,31,02,38,7.00
2008,05,31,02,39,7.00
2008,05,31,02,40,7.00
2008,05,31,02,41,7.10
2008,05,31,02,42,7.20
2008,05,31,02,43,7.20
2008,05,31,02,44,7.30
2008,05,31,02,45,7.30
2008,05,31,02,46,7.30
2008,05,31,02,47,7.30
2008,05,31,02,48,7.40
2008,05,31,02,49,7.40
2008,05,31,02,50,7.40
2008,05,31,02,51,7.40
2008,05,31,02,52,7.40
2008,05,31,02,53,7.40
2008,05,31,02,54,7.40
2008,05,31,02,55,7.40
2008,05,31,02,56,7.40
2008,05,31,02,57,7.40
2008,05,31,02,58,7.30
2008,05,31,02,59,7.30
2008,05,31,03,00,7.30
2008,05,31,03,01,7.30
2008,05,31,03,02,7.30
2008,05,31,03,03,7.30
2008,05,31,03,04,7.30
2008,05,31,03,05,7.30
2008,05,31,03,06,7.30
2008,05,31,03,07,7.30
2008,05,31,03,08,7.30
2008,05,31,03,09,7.30
2008,05,31,03,10,7.30
2008,05,31,03,11,7.30
2008,05,31,03,12,7.30
2008,05,31,03,13,7.30
2008,05,31,03,14,7.30
2008,05,31,03,15,7.30
2008,05,31,03,16,7.30
2008,05,31,03,17,7.20
2008,05,31,03,18,7.20
2008,05,31,03,19,7.20
2008,05,31,03,20,7.20
2008,05,31,03,21,7.20
2008,05,31,03,22,7.20
2008,05,31,03,23,7.20
2008,05,31,03,24,7.20
2008,05,31,03,25,7.20
2008,05,31,03,26,7.10
2008,05,31,03,27,7.10
2008,05,31,03,28,7.10
2008,05,31,03,29,7.10
2008,05,31,03,30,7.10
2008,05,31,03,31,7.00
2008,05,31,03,32,7.00
2008,05,31,03,33,7.00
2008,05,31,03,34,7.00
2008,05,31,03,35,6.90
2008,05,31,03,36,6.90
2008,05,31,03,37,6.90
2008,05,31,03,38,6.90
2008,05,31,03,39,6.90
2008,05,31,03,40,6.90
2008,05,31,03,41,6.90
2008,05,31,03,42,6.90
2008,05,31,03,43,6.90
2008,05,31,03,44,6.90
2008,05,31,03,45,6.90
2008,05,31,03,46,6.90
2008,05,31,03,47,6.90
2008,05,31,03,48,6.90
2008,05,31,03,49,6.90
2008,05,31,03,50,6.90
2008,05,31,03,51,6.80
2008,05,31,03,52,6.80
2008,05,31,03,53,6.80
2008,05,31,03,54,6.80
2008,05,31,03,55,6.80
2008,05,31,03,56,6.80
2008,05,31,03,57,6.80
2008,05,31,03,58,6.80
2008,05,31,03,59,6.80
2008,05,31,04,00,6.80
2008,05,31,04,01,6.80
2008,05,31,04,02,6.80
2008,05,31,04,03,6.70
2008,05,31,04,04,6.70
2008,05,31,04,05,6.70
2008,05,31,04,06,6.70
2008,05,31,04,07,6.80
2008,05,31,04,08,6.80
2008,05,31,04,09,6.80
2008,05,31,04,10,6.80
2008,05,31,04,11,6.80
2008,05,31,04,12,6.80
2008,05,31,04,13,6.80
2008,05,31,04,14,6.80
2008,05,31,04,15,6.80
2008,05,31,04,16,6.80
2008,05,31,04,17,6.80
2008,05,31,04,18,6.80
2008,05,31,04,19,6.80
2008,05,31,04,20,6.70
2008,05,31,04,21,6.70
2008,05,31,04,22,6.70
2008,05,31,04,23,6.60
2008,05,31,04,24,6.60
2008,05,31,04,25,6.60
2008,05,31,04,26,6.60
2008,05,31,04,27,6.60
2008,05,31,04,28,6.60
2008,05,31,04,29,6.60
2008,05,31,04,30,6.60
2008,05,31,04,31,6.60
2008,05,31,04,32,6.60
2008,05,31,04,33,6.60
2008,05,31,04,34,6.60
2008,05,31,04,35,6.50
2008,05,31,04,36,6.40
2008,05,31,04,37,6.40
2008,05,31,04,38,6.40
2008,05,31,04,39,6.50
2008,05,31,04,40,6.60
2008,05,31,04,41,6.60
2008,05,31,04,42,6.60
2008,05,31,04,43,6.60
2008,05,31,04,44,6.60
2008,05,31,04,45,6.60
2008,05,31,04,46,6.60
2008,05,31,04,47,6.60
2008,05,31,04,48,6.60
2008,05,31,04,49,6.60
2008,05,31,04,50,6.70
2008,05,31,04,51,6.70
2008,05,31,04,52,6.70
2008,05,31,04,53,6.70
2008,05,31,04,54,6.70
2008,05,31,04,55,6.70
2008,05,31,04,56,6.70
2008,05,31,04,57,6.70
2008,05,31,04,58,6.70
2008,05,31,04,59,6.70
2008,05,31,05,00,6.80
2008,05,31,05,01,6.80
2008,05,31,05,02,6.80
2008,05,31,05,03,6.80
2008,05,31,05,04,6.80
2008,05,31,05,05,6.80
2008,05,31,05,06,6.80
2008,05,31,05,07,6.80
2008,05,31,05,08,6.80
2008,05,31,05,09,6.80
2008,05,31,05,10,6.80
2008,05,31,05,11,6.80
2008,05,31,05,12,6.80
2008,05,31,05,13,6.80
2008,05,31,05,14,6.80
2008,05,31,05,15,6.80
2008,05,31,05,16,6.80
2008,05,31,05,17,6.80
2008,05,31,05,18,6.80
2008,05,31,05,19,6.80
2008,05,31,05,20,6.70
2008,05,31,05,21,6.70
2008,05,31,05,22,6.70
2008,05,31,05,23,6.70
2008,05,31,05,24,6.70
2008,05,31,05,25,6.70
2008,05,31,05,26,6.60
2008,05,31,05,27,6.60
2008,05,31,05,28,6.60
2008,05,31,05,29,6.60
2008,05,31,05,30,6.70
2008,05,31,05,31,6.70
2008,05,31,05,32,6.70
2008,05,31,05,33,6.70
2008,05,31,05,34,6.70
2008,05,31,05,35,6.60
2008,05,31,05,36,6.60
2008,05,31,05,37,6.60
2008,05,31,05,38,6.50
2008,05,31,05,39,6.40
2008,05,31,05,40,6.40
2008,05,31,05,41,6.30
2008,05,31,05,42,6.20
2008,05,31,05,43,6.20
2008,05,31,05,44,6.20
2008,05,31,05,45,6.10
2008,05,31,05,46,6.10
2008,05,31,05,47,6.10
2008,05,31,05,48,6.10
2008,05,31,05,49,6.00
2008,05,31,05,50,6.00
2008,05,31,05,51,6.00
2008,05,31,05,52,6.00
2008,05,31,05,53,6.00
2008,05,31,05,54,6.00
2008,05,31,05,55,6.00
2008,05,31,05,56,5.90
2008,05,31,05,57,5.90
2008,05,31,05,58,5.90
2008,05,31,05,59,5.90
2008,05,31,06,00,5.90
2008,05,31,06,01,5.90
2008,05,31,06,02,5.80
2008,05,31,06,03,5.80
2008,05,31,06,04,5.80
2008,05,31,06,05,5.80
2008,05,31,06,06,5.80
2008,05,31,06,07,5.80
2008,05,31,06,08,5.80
2008,05,31,06,09,5.80
2008,05,31,06,10,5.80
2008,05,31,06,11,5.80
2008,05,31,06,12,5.80
2008,05,31,06,13,5.80
2008,05,31,06,14,5.80
2008,05,31,06,15,5.80
2008,05,31,06,16,5.80
2008,05,31,06,17,5.80
2008,05,31,06,18,5.80
2008,05,31,06,19,5.80
2008,05,31,06,20,5.80
2008,05,31,06,21,5.80
2008,05,31,06,22,5.80
2008,05,31,06,23,5.90
2008,05,31,06,24,5.90
2008,05,31,06,25,5.90
2008,05,31,06,26,5.90
2008,05,31,06,27,5.90
2008,05,31,06,28,6.00
2008,05,31,06,29,6.00
2008,05,31,06,30,6.00
2008,05,31,06,31,6.10
2008,05,31,06,32,6.10
2008,05,31,06,33,6.20
2008,05,31,06,34,6.20
2008,05,31,06,35,6.20
2008,05,31,06,36,6.20
2008,05,31,06,37,6.30
2008,05,31,06,38,6.30
2008,05,31,06,39,6.40
2008,05,31,06,40,6.40
2008,05,31,06,41,6.40
2008,05,31,06,42,6.40
2008,05,31,06,43,6.40
2008,05,31,06,44,6.40
2008,05,31,06,45,6.40
2008,05,31,06,46,6.40
2008,05,31,06,47,6.40
2008,05,31,06,48,6.40
2008,05,31,06,49,6.40
2008,05,31,06,50,6.50
2008,05,31,06,51,6.60
2008,05,31,06,52,6.60
2008,05,31,06,53,6.60
2008,05,31,06,54,6.60
2008,05,31,06,55,6.60
2008,05,31,06,56,6.60
2008,05,31,06,57,6.60
2008,05,31,06,58,6.60
2008,05,31,06,59,6.70
2008,05,31,07,00,6.80
2008,05,31,07,01,6.80
2008,05,31,07,02,6.80
2008,05,31,07,03,6.90
2008,05,31,07,04,6.90
2008,05,31,07,05,7.00
2008,05,31,07,06,7.00
2008,05,31,07,07,7.10
2008,05,31,07,08,7.10
2008,05,31,07,09,7.20
2008,05,31,07,10,7.30
2008,05,31,07,11,7.30
2008,05,31,07,12,7.30
2008,05,31,07,13,7.40
2008,05,31,07,14,7.50
2008,05,31,07,15,7.50
2008,05,31,07,16,7.60
2008,05,31,07,17,7.60
2008,05,31,07,18,7.60
2008,05,31,07,19,7.70
2008,05,31,07,20,7.70
2008,05,31,07,21,7.80
2008,05,31,07,22,7.80
2008,05,31,07,23,7.80
2008,05,31,07,24,7.80
2008,05,31,07,25,7.90
2008,05,31,07,26,7.90
2008,05,31,07,27,7.90
2008,05,31,07,28,8.00
2008,05,31,07,29,8.00
2008,05,31,07,30,8.10
2008,05,31,07,31,8.10
2008,05,31,07,32,8.20
2008,05,31,07,33,8.20
2008,05,31,07,34,8.20
2008,05,31,07,35,8.30
2008,05,31,07,36,8.30
2008,05,31,07,37,8.40
2008,05,31,07,38,8.50
2008,05,31,07,39,8.60
2008,05,31,07,40,8.60
2008,05,31,07,41,8.70
2008,05,31,07,42,8.80
2008,05,31,07,43,8.90
2008,05,31,07,44,9.00
2008,05,31,07,45,9.00
2008,05,31,07,46,9.10
2008,05,31,07,47,9.20
2008,05,31,07,48,9.30
2008,05,31,07,49,9.30
2008,05,31,07,50,9.40
2008,05,31,07,51,9.50
2008,05,31,07,52,9.50
2008,05,31,07,53,9.60
2008,05,31,07,54,9.70
2008,05,31,07,55,9.70
2008,05,31,07,56,9.70
2008,05,31,07,57,9.70
2008,05,31,07,58,9.80
2008,05,31,07,59,9.90
2008,05,31,08,00,10.00
2008,05,31,08,01,10.10
2008,05,31,08,02,10.10
2008,05,31,08,03,10.20
2008,05,31,08,04,10.30
2008,05,31,08,05,10.40
2008,05,31,08,06,10.40
2008,05,31,08,07,10.60
2008,05,31,08,08,10.70
2008,05,31,08,09,10.80
2008,05,31,08,10,10.90
2008,05,31,08,11,11.00
2008,05,31,08,12,11.20
2008,05,31,08,13,11.30
2008,05,31,08,14,11.40
2008,05,31,08,15,11.40
2008,05,31,08,16,11.40
2008,05,31,08,17,11.50
2008,05,31,08,18,11.60
2008,05,31,08,19,11.60
2008,05,31,08,20,11.70
2008,05,31,08,21,11.80
2008,05,31,08,22,11.80
2008,05,31,08,23,11.80
2008,05,31,08,24,11.80
2008,05,31,08,25,11.90
2008,05,31,08,26,11.90
2008,05,31,08,27,12.00
2008,05,31,08,28,12.00
2008,05,31,08,29,12.00
2008,05,31,08,30,12.00
2008,05,31,08,31,12.00
2008,05,31,08,32,12.10
2008,05,31,08,33,12.20
2008,05,31,08,34,12.20
2008,05,31,08,35,12.30
2008,05,31,08,36,12.30
2008,05,31,08,37,12.40
2008,05,31,08,38,12.50
2008,05,31,08,39,12.50
2008,05,31,08,40,12.50
2008,05,31,08,41,12.60
2008,05,31,08,42,12.70
2008,05,31,08,43,12.80
2008,05,31,08,44,12.90
2008,05,31,08,45,13.00
2008,05,31,08,46,13.10
2008,05,31,08,47,13.30
2008,05,31,08,48,13.40
2008,05,31,08,49,13.50
2008,05,31,08,50,13.50
2008,05,31,08,51,13.60
2008,05,31,08,52,13.60
2008,05,31,08,53,13.70
2008,05,31,08,54,13.70
2008,05,31,08,55,13.70
2008,05,31,08,56,13.70
2008,05,31,08,57,13.80
2008,05,31,08,58,13.80
2008,05,31,08,59,13.80
2008,05,31,09,00,13.80
2008,05,31,09,01,13.70
2008,05,31,09,02,13.70
2008,05,31,09,03,13.70
2008,05,31,09,04,13.70
2008,05,31,09,05,13.70
2008,05,31,09,06,13.80
2008,05,31,09,07,13.90
2008,05,31,09,08,13.80
2008,05,31,09,09,13.80
2008,05,31,09,10,13.80
2008,05,31,09,11,13.80
2008,05,31,09,12,13.80
2008,05,31,09,13,13.70
2008,05,31,09,14,13.70
2008,05,31,09,15,13.70
2008,05,31,09,16,13.70
2008,05,31,09,17,13.70
2008,05,31,09,18,13.70
2008,05,31,09,19,13.70
2008,05,31,09,20,13.90
2008,05,31,09,21,13.90
2008,05,31,09,22,14.00
2008,05,31,09,23,14.10
2008,05,31,09,24,14.20
2008,05,31,09,25,14.40
2008,05,31,09,26,14.60
2008,05,31,09,27,14.70
2008,05,31,09,28,14.80
2008,05,31,09,29,15.00
2008,05,31,09,30,15.10
2008,05,31,09,31,15.20
2008,05,31,09,32,15.30
2008,05,31,09,33,15.30
2008,05,31,09,34,15.30
2008,05,31,09,35,15.30
2008,05,31,09,36,15.30
2008,05,31,09,37,15.30
2008,05,31,09,38,15.30
2008,05,31,09,39,15.30
2008,05,31,09,40,15.40
2008,05,31,09,41,15.60
2008,05,31,09,42,15.70
2008,05,31,09,43,15.80
2008,05,31,09,44,15.80
2008,05,31,09,45,15.80
2008,05,31,09,46,15.80
2008,05,31,09,47,15.70
2008,05,31,09,48,15.70
2008,05,31,09,49,15.60
2008,05,31,09,50,15.50
2008,05,31,09,51,15.50
2008,05,31,09,52,15.50
2008,05,31,09,53,15.40
2008,05,31,09,54,15.50
2008,05,31,09,55,15.60
2008,05,31,09,56,15.60
2008,05,31,09,57,15.70
2008,05,31,09,58,15.80
2008,05,31,09,59,15.90
2008,05,31,10,00,16.00
2008,05,31,10,01,16.10
2008,05,31,10,02,16.10
2008,05,31,10,03,16.10
2008,05,31,10,04,16.10
2008,05,31,10,05,16.00
2008,05,31,10,06,16.00
2008,05,31,10,07,16.10
2008,05,31,10,08,16.10
2008,05,31,10,09,16.20
2008,05,31,10,10,16.20
2008,05,31,10,11,16.30
2008,05,31,10,12,16.30
2008,05,31,10,13,16.30
2008,05,31,10,14,16.30
2008,05,31,10,15,16.40
2008,05,31,10,16,16.40
2008,05,31,10,17,16.40
2008,05,31,10,18,16.40
2008,05,31,10,19,16.30
2008,05,31,10,20,16.20
2008,05,31,10,21,16.10
2008,05,31,10,22,16.00
2008,05,31,10,23,15.90
2008,05,31,10,24,15.80
2008,05,31,10,25,15.60
2008,05,31,10,26,15.50
2008,05,31,10,27,15.50
2008,05,31,10,28,15.50
2008,05,31,10,29,15.50
2008,05,31,10,30,15.50
2008,05,31,10,31,15.30
2008,05,31,10,32,15.30
2008,05,31,10,33,15.30
2008,05,31,10,34,15.20
2008,05,31,10,35,15.10
2008,05,31,10,36,15.10
2008,05,31,10,37,15.00
2008,05,31,10,38,15.00
2008,05,31,10,39,15.00
2008,05,31,10,40,15.00
2008,05,31,10,41,15.00
2008,05,31,10,42,15.00
2008,05,31,10,43,14.90
2008,05,31,10,44,14.90
2008,05,31,10,45,14.90
2008,05,31,10,46,14.70
2008,05,31,10,47,14.60
2008,05,31,10,48,14.60
2008,05,31,10,49,14.50
2008,05,31,10,50,14.60
2008,05,31,10,51,14.60
2008,05,31,10,52,14.60
2008,05,31,10,53,14.50
2008,05,31,10,54,14.40
2008,05,31,10,55,14.50
2008,05,31,10,56,14.50
2008,05,31,10,57,14.50
2008,05,31,10,58,14.50
2008,05,31,10,59,14.50
2008,05,31,11,00,14.40
2008,05,31,11,01,14.40
2008,05,31,11,02,14.50
2008,05,31,11,03,14.50
2008,05,31,11,04,14.50
2008,05,31,11,05,14.50
2008,05,31,11,06,14.50
2008,05,31,11,07,14.60
2008,05,31,11,08,14.60
2008,05,31,11,09,14.70
2008,05,31,11,10,14.70
2008,05,31,11,11,14.70
2008,05,31,11,12,14.70
2008,05,31,11,13,14.90
2008,05,31,11,14,15.00
2008,05,31,11,15,15.00
2008,05,31,11,16,15.00
2008,05,31,11,17,15.00
2008,05,31,11,18,15.00
2008,05,31,11,19,15.10
2008,05,31,11,20,15.00
2008,05,31,11,21,15.10
2008,05,31,11,22,15.00
2008,05,31,11,23,15.00
2008,05,31,11,24,15.10
2008,05,31,11,25,15.00
2008,05,31,11,26,15.10
2008,05,31,11,27,15.10
2008,05,31,11,28,15.00
2008,05,31,11,29,15.10
2008,05,31,11,30,15.10
2008,05,31,11,31,15.20
2008,05,31,11,32,15.20
2008,05,31,11,33,15.30
2008,05,31,11,34,15.30
2008,05,31,11,35,15.20
2008,05,31,11,36,15.30
2008,05,31,11,37,15.30
2008,05,31,11,38,15.20
2008,05,31,11,39,15.30
2008,05,31,11,40,15.40
2008,05,31,11,41,15.50
2008,05,31,11,42,15.50
2008,05,31,11,43,15.30
2008,05,31,11,44,15.30
2008,05,31,11,45,15.30
2008,05,31,11,46,15.20
2008,05,31,11,47,15.20
2008,05,31,11,48,15.20
2008,05,31,11,49,15.20
2008,05,31,11,50,15.30
2008,05,31,11,51,15.30
2008,05,31,11,52,15.30
2008,05,31,11,53,15.40
2008,05,31,11,54,15.50
2008,05,31,11,55,15.50
2008,05,31,11,56,15.60
2008,05,31,11,57,15.70
2008,05,31,11,58,15.70
2008,05,31,11,59,15.70
2008,05,31,12,00,15.70
2008,05,31,12,01,15.60
2008,05,31,12,02,15.70
2008,05,31,12,03,15.60
2008,05,31,12,04,15.50
2008,05,31,12,05,15.50
2008,05,31,12,06,15.40
2008,05,31,12,07,15.40
2008,05,31,12,08,15.40
2008,05,31,12,09,15.30
2008,05,31,12,10,15.30
2008,05,31,12,11,15.30
2008,05,31,12,12,15.30
2008,05,31,12,13,15.40
2008,05,31,12,14,15.40
2008,05,31,12,15,15.40
2008,05,31,12,16,15.50
2008,05,31,12,17,15.60
2008,05,31,12,18,15.60
2008,05,31,12,19,15.60
2008,05,31,12,20,15.60
2008,05,31,12,21,15.60
2008,05,31,12,22,15.70
2008,05,31,12,23,15.70
2008,05,31,12,24,15.60
2008,05,31,12,25,15.60
2008,05,31,12,26,15.60
2008,05,31,12,27,15.60
2008,05,31,12,28,15.70
2008,05,31,12,29,15.70
2008,05,31,12,30,15.80
2008,05,31,12,31,15.80
2008,05,31,12,32,15.80
2008,05,31,12,33,15.80
2008,05,31,12,34,15.80
2008,05,31,12,35,15.80
2008,05,31,12,36,15.90
2008,05,31,12,37,15.90
2008,05,31,12,38,16.00
2008,05,31,12,39,16.10
2008,05,31,12,40,16.10
2008,05,31,12,41,16.10
2008,05,31,12,42,15.90
2008,05,31,12,43,15.80
2008,05,31,12,44,15.90
2008,05,31,12,45,15.90
2008,05,31,12,46,15.80
2008,05,31,12,47,15.80
2008,05,31,12,48,15.80
2008,05,31,12,49,15.80
2008,05,31,12,50,15.80
2008,05,31,12,51,15.80
2008,05,31,12,52,15.80
2008,05,31,12,53,15.80
2008,05,31,12,54,15.80
2008,05,31,12,55,15.80
2008,05,31,12,56,15.80
2008,05,31,12,57,15.80
2008,05,31,12,58,15.80
2008,05,31,12,59,15.80
2008,05,31,13,00,15.80
2008,05,31,13,01,15.80
2008,05,31,13,02,15.80
2008,05,31,13,03,15.80
2008,05,31,13,04,15.80
2008,05,31,13,05,15.90
2008,05,31,13,06,15.90
2008,05,31,13,07,15.90
2008,05,31,13,08,15.90
2008,05,31,13,09,16.00
2008,05,31,13,10,16.10
2008,05,31,13,11,16.10
2008,05,31,13,12,16.10
2008,05,31,13,13,16.10
2008,05,31,13,14,16.10
2008,05,31,13,15,16.10
2008,05,31,13,16,16.20
2008,05,31,13,17,16.10
2008,05,31,13,18,16.10
2008,05,31,13,19,16.00
2008,05,31,13,20,15.90
2008,05,31,13,21,15.80
2008,05,31,13,22,15.80
2008,05,31,13,23,15.60
2008,05,31,13,24,15.60
2008,05,31,13,25,15.60
2008,05,31,13,26,15.70
2008,05,31,13,27,15.70
2008,05,31,13,28,15.80
2008,05,31,13,29,15.90
2008,05,31,13,30,16.10
2008,05,31,13,31,16.10
2008,05,31,13,32,16.10
2008,05,31,13,33,16.10
2008,05,31,13,34,16.10
2008,05,31,13,35,16.20
2008,05,31,13,36,16.20
2008,05,31,13,37,16.20
2008,05,31,13,38,16.30
2008,05,31,13,39,16.20
2008,05,31,13,40,16.30
2008,05,31,13,41,16.40
2008,05,31,13,42,16.40
2008,05,31,13,43,16.60
2008,05,31,13,44,16.70
2008,05,31,13,45,16.70
2008,05,31,13,46,16.70
2008,05,31,13,47,16.80
2008,05,31,13,48,16.90
2008,05,31,13,49,16.90
2008,05,31,13,50,16.80
2008,05,31,13,51,16.80
2008,05,31,13,52,16.70
2008,05,31,13,53,16.70
2008,05,31,13,54,16.70
2008,05,31,13,55,16.60
2008,05,31,13,56,16.60
2008,05,31,13,57,16.60
2008,05,31,13,58,16.70
2008,05,31,13,59,16.70
2008,05,31,14,00,16.70
2008,05,31,14,01,16.70
2008,05,31,14,02,16.70
2008,05,31,14,03,16.70
2008,05,31,14,04,16.70
2008,05,31,14,05,16.70
2008,05,31,14,06,16.50
2008,05,31,14,07,16.40
2008,05,31,14,08,16.40
2008,05,31,14,09,16.40
2008,05,31,14,10,16.40
2008,05,31,14,11,16.50
2008,05,31,14,12,16.60
2008,05,31,14,13,16.70
2008,05,31,14,14,16.70
2008,05,31,14,15,16.70
2008,05,31,14,16,16.70
2008,05,31,14,17,16.60
2008,05,31,14,18,16.60
2008,05,31,14,19,16.50
2008,05,31,14,20,16.60
2008,05,31,14,21,16.60
2008,05,31,14,22,16.50
2008,05,31,14,23,16.60
2008,05,31,14,24,16.60
2008,05,31,14,25,16.60
2008,05,31,14,26,16.60
2008,05,31,14,27,16.80
2008,05,31,14,28,16.80
2008,05,31,14,29,16.70
2008,05,31,14,30,16.70
2008,05,31,14,31,16.70
2008,05,31,14,32,16.70
2008,05,31,14,33,16.70
2008,05,31,14,34,16.70
2008,05,31,14,35,16.70
2008,05,31,14,36,16.80
2008,05,31,14,37,16.90
2008,05,31,14,38,16.90
2008,05,31,14,39,16.80
2008,05,31,14,40,16.80
2008,05,31,14,41,16.80
2008,05,31,14,42,16.80
2008,05,31,14,43,16.80
2008,05,31,14,44,16.70
2008,05,31,14,45,16.50
2008,05,31,14,46,16.40
2008,05,31,14,47,16.40
2008,05,31,14,48,16.40
2008,05,31,14,49,16.40
2008,05,31,14,50,16.40
2008,05,31,14,51,16.40
2008,05,31,14,52,16.40
2008,05,31,14,53,16.40
2008,05,31,14,54,16.40
2008,05,31,14,55,16.40
2008,05,31,14,56,16.40
2008,05,31,14,57,16.40
2008,05,31,14,58,16.40
2008,05,31,14,59,16.30
2008,05,31,15,00,16.20
2008,05,31,15,01,16.20
2008,05,31,15,02,16.00
2008,05,31,15,03,15.90
2008,05,31,15,04,15.90
2008,05,31,15,05,16.00
2008,05,31,15,06,16.10
2008,05,31,15,07,16.20
2008,05,31,15,08,16.20
2008,05,31,15,09,16.30
2008,05,31,15,10,16.30
2008,05,31,15,11,16.20
2008,05,31,15,12,16.20
2008,05,31,15,13,16.20
2008,05,31,15,14,16.30
2008,05,31,15,15,16.20
2008,05,31,15,16,16.20
2008,05,31,15,17,16.30
2008,05,31,15,18,16.40
2008,05,31,15,19,16.30
2008,05,31,15,20,16.20
2008,05,31,15,21,16.20
2008,05,31,15,22,16.20
2008,05,31,15,23,16.10
2008,05,31,15,24,16.10
2008,05,31,15,25,16.10
2008,05,31,15,26,16.10
2008,05,31,15,27,16.10
2008,05,31,15,28,16.10
2008,05,31,15,29,16.10
2008,05,31,15,30,16.20
2008,05,31,15,31,16.30
2008,05,31,15,32,16.40
2008,05,31,15,33,16.50
2008,05,31,15,34,16.70
2008,05,31,15,35,16.70
2008,05,31,15,36,16.60
2008,05,31,15,37,16.40
2008,05,31,15,38,16.30
2008,05,31,15,39,16.30
2008,05,31,15,40,16.30
2008,05,31,15,41,16.40
2008,05,31,15,42,16.50
2008,05,31,15,43,16.60
2008,05,31,15,44,16.70
2008,05,31,15,45,16.70
2008,05,31,15,46,16.70
2008,05,31,15,47,16.70
2008,05,31,15,48,16.70
2008,05,31,15,49,16.70
2008,05,31,15,50,16.70
2008,05,31,15,51,16.70
2008,05,31,15,52,16.70
2008,05,31,15,53,16.60
2008,05,31,15,54,16.40
2008,05,31,15,55,16.40
2008,05,31,15,56,16.40
2008,05,31,15,57,16.60
2008,05,31,15,58,16.60
2008,05,31,15,59,16.70
2008,05,31,16,00,16.70
2008,05,31,16,01,16.80
2008,05,31,16,02,16.80
2008,05,31,16,03,16.70
2008,05,31,16,04,16.80
2008,05,31,16,05,16.70
2008,05,31,16,06,16.70
2008,05,31,16,07,16.70
2008,05,31,16,08,16.60
2008,05,31,16,09,16.70
2008,05,31,16,10,16.60
2008,05,31,16,11,16.60
2008,05,31,16,12,16.60
2008,05,31,16,13,16.60
2008,05,31,16,14,16.40
2008,05,31,16,15,16.40
2008,05,31,16,16,16.70
2008,05,31,16,17,16.70
2008,05,31,16,18,16.70
2008,05,31,16,19,16.70
2008,05,31,16,20,16.70
2008,05,31,16,21,16.60
2008,05,31,16,22,16.50
2008,05,31,16,23,16.60
2008,05,31,16,24,16.60
2008,05,31,16,25,16.70
2008,05,31,16,26,16.70
2008,05,31,16,27,16.80
2008,05,31,16,28,16.90
2008,05,31,16,29,16.90
2008,05,31,16,30,16.90
2008,05,31,16,31,16.90
2008,05,31,16,32,16.80
2008,05,31,16,33,16.90
2008,05,31,16,34,16.90
2008,05,31,16,35,17.00
2008,05,31,16,36,17.00
2008,05,31,16,37,17.00
2008,05,31,16,38,17.00
2008,05,31,16,39,17.10
2008,05,31,16,40,17.10
2008,05,31,16,41,17.20
2008,05,31,16,42,17.20
2008,05,31,16,43,17.20
2008,05,31,16,44,17.20
2008,05,31,16,45,17.30
2008,05,31,16,46,17.30
2008,05,31,16,47,17.40
2008,05,31,16,48,17.50
2008,05,31,16,49,17.60
2008,05,31,16,50,17.70
2008,05,31,16,51,17.80
2008,05,31,16,52,17.90
2008,05,31,16,53,17.90
2008,05,31,16,54,18.00
2008,05,31,16,55,18.10
2008,05,31,16,56,18.20
2008,05,31,16,57,18.20
2008,05,31,16,58,18.20
2008,05,31,16,59,18.10
2008,05,31,17,00,18.10
2008,05,31,17,01,18.10
2008,05,31,17,02,18.20
2008,05,31,17,03,18.10
2008,05,31,17,04,18.10
2008,05,31,17,05,18.00
2008,05,31,17,06,17.90
2008,05,31,17,07,17.90
2008,05,31,17,08,17.90
2008,05,31,17,09,17.90
2008,05,31,17,10,17.90
2008,05,31,17,11,17.80
2008,05,31,17,12,17.80
2008,05,31,17,13,17.70
2008,05,31,17,14,17.60
2008,05,31,17,15,17.50
2008,05,31,17,16,17.50
2008,05,31,17,17,17.40
2008,05,31,17,18,17.40
2008,05,31,17,19,17.40
2008,05,31,17,20,17.40
2008,05,31,17,21,17.50
2008,05,31,17,22,17.60
2008,05,31,17,23,17.60
2008,05,31,17,24,17.70
2008,05,31,17,25,17.70
2008,05,31,17,26,17.60
2008,05,31,17,27,17.70
2008,05,31,17,28,17.80
2008,05,31,17,29,17.80
2008,05,31,17,30,17.90
2008,05,31,17,31,17.90
2008,05,31,17,32,17.80
2008,05,31,17,33,17.80
2008,05,31,17,34,17.90
2008,05,31,17,35,17.90
2008,05,31,17,36,17.90
2008,05,31,17,37,17.90
2008,05,31,17,38,17.90
2008,05,31,17,39,17.90
2008,05,31,17,40,17.90